User: anonymous
Location: Irma
(52.9170°N, 111.2330°W)
Time: 14:35:12
(UTC-06:00)
Language:

Cosmos 2279 Rocket - Orbit

View from above orbital plane
View from above orbital plane
View from above satellite
View from above satellite

Ground track
Ground track

The orbit data is extracted from the following two-line orbital elements,

1 23093U 94024B   14206.05109592  .00000027  00000-0  11878-4 0  8784
2 23093 082.9478 181.3913 0011672 091.5148 268.7347 13.77622508485744
Epoch (UTC): 25 July 2014 01:13:34
Eccentricity: 0.0011672
inclination: 82.9478°
perigee height: 964 km
apogee height: 981 km
right ascension of ascending node: 181.3913°
argument of perigee: 91.5148°
revolutions per day: 13.77622508
mean anomaly at epoch: 268.7347°
orbit number at epoch: 48574

The dashed part of the orbit path shows where the satellite is in the earth's shadow,  

DLR